Find OneWeb SL0309

NORAD ID: 49095 Int'l Des: 2021-075 Owner: ONEWEBN Country: UK Constellation: oneweb operational
LEOCIRCULARPOLARONEWEB_TYPE

Live Position

Loading 3D Globe...

About OneWeb SL0309

Description loading...

Upcoming Passes

Passes for default location (London). Set your location on the main map for personalized predictions.

Altitude History

Loading altitude history...

Two-Line Element Set

1 49095U 21075W 26110.45346969 .00000111 00000-0 25383-3 0 9995
2 49095 87.9186 17.3331 0001643 66.6807 293.4497 13.17651357225975
Epoch: Apr 20, 2026 • Age: 5 hours

Current Status

Altitude 1223.3 km
Velocity 7.24 km/s
Sub-Earth Point -81.69°S, 125.08°E
Launch Date Aug 21, 2021
Age 4.6 years
Type internet

Technical Details

Classification Payload
Mass 148.00 kg
Dry Mass 140.00 kg
Total Mass 148.00 kg
Length 1.30 m
Diameter 1.00 m
Span 5.00 m
Shape Trapezoid+2 pan
Manufacturer ONEWUS
Bus Type ARROW
Phase Status In Orbit
Owner/State ONEWEBN/UK

Most Searched